This is the latest recevied weather packets stored in our database for station/object IZ8NVY-15. If no packets are shown the sender has not sent any weather packets the latest 10 day(s).
| Time | Temp. | Humidity | Pressure | Rain* | Wind** | Luminosity | Snow |
|---|---|---|---|---|---|---|---|
| 1777639995 | 21.11° C | 39% | 984.2 hPa | - | - | - | - |
| 1777636386 | 20.56° C | 42% | 984.4 hPa | - | - | - | - |
| 1777625592 | 20.56° C | 53% | 984.6 hPa | - | - | - | - |
| 1777621992 | 16.11° C | 56% | 985 hPa | - | - | - | - |
| 1777611176 | 12.22° C | 59% | 983.6 hPa | - | - | - | - |
| 1777582380 | 13.33° C | 54% | 984.3 hPa | - | - | - | - |
| 1777575169 | 14.44° C | 56% | 983.9 hPa | - | - | - | - |
| 1777567967 | 17.22° C | 57% | 982.6 hPa | - | - | - | - |
| 1777564367 | 20.56° C | 56% | 982.4 hPa | - | - | - | - |
| 1777560765 | 22.22° C | 59% | 982.2 hPa | - | - | - | - |
| 1777553564 | 22.78° C | 78% | 982 hPa | - | - | - | - |
| 1777546363 | 18.89° C | 82% | 982.3 hPa | - | - | - | - |
| 1777542764 | 18.89° C | 84% | 982.5 hPa | - | - | - | - |
| 1777539164 | 18.33° C | 83% | 982.3 hPa | - | - | - | - |
| 1777535559 | 15.56° C | 82% | 981.6 hPa | - | - | - | - |
| 1777528358 | 15° C | 75% | 980.7 hPa | - | - | - | - |
| 1777524757 | 17.78° C | 64% | 980.3 hPa | - | - | - | - |
| 1777513964 | 17.22° C | 71% | 980 hPa | - | - | - | - |
| 1777510355 | 18.33° C | 67% | 979.5 hPa | - | - | - | - |
| 1777499561 | 17.22° C | 45% | 979.7 hPa | - | - | - | - |
| 1777492363 | 18.33° C | 42% | 979.6 hPa | - | - | - | - |
| 1777488759 | 19.44° C | 40% | 979 hPa | - | - | - | - |
| 1777485158 | 22.22° C | 37% | 978.6 hPa | - | - | - | - |
| 1777482087 | 25° C | 35% | 978.2 hPa | - | - | - | - |
| 1777481548 | 25° C | 35% | 978.2 hPa | - | - | - | - |
* Rain since midnight (hover to see other rain measurements)
** Current wind speed in m/s (hover to see current wind gust speed)